GPS BIIF-11

Last updated on Sun Oct 26 2025 00:02:42 GMT+0000 (Coordinated Universal Time)

1 41019U 15062A 25298.44812477 -.00000065 00000+0 00000+0 0 9992 2 41019 56.7991 39.8700 0109013 228.7306 130.3439 2.00567101 73121
UTC large
Height (km)
Speed (km/s)
/
Latitude / Longitude
Inclination (degrees)
Orbital Period (minutes)
Azimuth
Elevation
Range (km)
Doppler Factor

Next 0 passes for location: London (51.5072 / 0.1276)

Sorry there are no passes over London.